EN

Hourly Weather Rotenburg

Today, 26 October, Monday

Time Temperature Precipitation Wind Pressure Humidity
00:00 +10°C° 0 mm 3 mps 751 mmHg 91%
01:00 +10°C° 0 mm 3 mps 750 mmHg 91%
02:00 +10°C° 0 mm 3 mps 750 mmHg 91%
03:00 +10°C° 0 mm 3 mps 750 mmHg 92%
04:00 +10°C° 0 mm 3 mps 750 mmHg 92%
05:00 +9°C° 0 mm 3 mps 751 mmHg 93%
06:00 +9°C° 0 mm 3 mps 751 mmHg 93%
07:00 +8°C° 0 mm 3 mps 751 mmHg 93%
08:00 +9°C° 0 mm 3 mps 751 mmHg 89%
09:00 +10°C° 0 mm 4 mps 751 mmHg 85%
10:00 +9°C° 0 mm 5 mps 751 mmHg 81%
11:00 +10°C° 0 mm 5 mps 751 mmHg 79%
12:00 +10°C° 0 mm 5 mps 751 mmHg 76%
13:00 +12°C° 0 mm 4 mps 751 mmHg 74%
14:00 +11°C° 0 mm 4 mps 751 mmHg 74%
15:00 +11°C° 0 mm 3 mps 751 mmHg 75%
16:00 +11°C° 0 mm 3 mps 751 mmHg 76%
17:00 +10°C° 0 mm 3 mps 751 mmHg 79%
18:00 +9°C° 0 mm 3 mps 751 mmHg 82%
19:00 +8°C° 0 mm 3 mps 751 mmHg 85%
20:00 +8°C° 0 mm 3 mps 751 mmHg 85%
21:00 +7°C° 0 mm 3 mps 751 mmHg 86%
22:00 +7°C° 0 mm 3 mps 751 mmHg 86%
23:00 +6°C° 0 mm 4 mps 751 mmHg 86%

Tomorrow, 27 October, Tuesday

Time Temperature Precipitation Wind Pressure Humidity
00:00 +6°C° 0 mm 4 mps 751 mmHg 86%
01:00 +5°C° 0 mm 4 mps 751 mmHg 86%
02:00 +6°C° 0 mm 4 mps 751 mmHg 87%
03:00 +6°C° 0 mm 4 mps 751 mmHg 88%
04:00 +6°C° 0 mm 4 mps 751 mmHg 89%
05:00 +6°C° 0 mm 4 mps 751 mmHg 89%
06:00 +6°C° 0 mm 4 mps 751 mmHg 89%
07:00 +6°C° 0 mm 5 mps 751 mmHg 89%
08:00 +7°C° 0 mm 5 mps 751 mmHg 84%
09:00 +8°C° 0 mm 6 mps 751 mmHg 80%
10:00 +9°C° 0 mm 6 mps 751 mmHg 76%
11:00 +9°C° 0 mm 6 mps 752 mmHg 74%
12:00 +10°C° 0 mm 6 mps 752 mmHg 72%
13:00 +10°C° 0 mm 5 mps 752 mmHg 70%
14:00 +10°C° 0.1 mm 5 mps 752 mmHg 71%
15:00 +11°C° 0.1 mm 4 mps 751 mmHg 73%
16:00 +11°C° 0.1 mm 4 mps 751 mmHg 75%
17:00 +10°C° 0 mm 4 mps 751 mmHg 78%
18:00 +8°C° 0 mm 4 mps 751 mmHg 81%
19:00 +7°C° 0 mm 4 mps 752 mmHg 84%
20:00 +7°C° 0 mm 4 mps 751 mmHg 83%
21:00 +7°C° 0 mm 5 mps 751 mmHg 83%
22:00 +7°C° 0 mm 5 mps 751 mmHg 82%
23:00 +7°C° 0 mm 5 mps 750 mmHg 81%

Day after tomorrow, 28 October, Wednesday

Time Temperature Precipitation Wind Pressure Humidity
00:00 +7°C° 0 mm 6 mps 750 mmHg 80%
01:00 +8°C° 0 mm 6 mps 749 mmHg 80%
02:00 +8°C° 0.5 mm 6 mps 749 mmHg 82%
03:00 +8°C° 0.5 mm 6 mps 749 mmHg 85%
04:00 +9°C° 0.5 mm 6 mps 749 mmHg 88%
05:00 +9°C° 0.4 mm 6 mps 749 mmHg 88%
06:00 +9°C° 0.4 mm 5 mps 750 mmHg 88%
07:00 +10°C° 0.4 mm 4 mps 750 mmHg 88%
08:00 +10°C° 0 mm 4 mps 750 mmHg 85%
09:00 +11°C° 0 mm 4 mps 751 mmHg 81%
10:00 +10°C° 0 mm 5 mps 751 mmHg 77%
11:00 +10°C° 0.3 mm 5 mps 751 mmHg 75%
12:00 +12°C° 0.3 mm 5 mps 751 mmHg 72%
13:00 +11°C° 0.3 mm 6 mps 751 mmHg 69%
14:00 +12°C° 0.3 mm 5 mps 751 mmHg 72%
15:00 +12°C° 0.3 mm 5 mps 751 mmHg 75%
16:00 +11°C° 0.3 mm 4 mps 751 mmHg 78%
17:00 +10°C° 0.3 mm 5 mps 751 mmHg 80%
18:00 +9°C° 0.3 mm 5 mps 751 mmHg 81%
19:00 +9°C° 0.3 mm 5 mps 751 mmHg 83%
20:00 +9°C° 0 mm 6 mps 751 mmHg 83%
21:00 +9°C° 0 mm 6 mps 751 mmHg 83%
22:00 +8°C° 0 mm 6 mps 751 mmHg 83%
23:00 +8°C° 0 mm 6 mps 750 mmHg 83%

29 October, Thursday

Time Temperature Precipitation Wind Pressure Humidity
00:00 +8°C° 0 mm 6 mps 750 mmHg 82%
01:00 +8°C° 0 mm 6 mps 750 mmHg 82%
02:00 +8°C° 0.2 mm 6 mps 750 mmHg 83%
03:00 +8°C° 0.2 mm 7 mps 750 mmHg 85%
04:00 +8°C° 0.2 mm 7 mps 750 mmHg 87%
05:00 +8°C° 0.1 mm 7 mps 751 mmHg 85%
06:00 +8°C° 0.1 mm 7 mps 751 mmHg 84%
07:00 +7°C° 0.1 mm 8 mps 751 mmHg 83%
08:00 +9°C° 0 mm 8 mps 752 mmHg 81%
09:00 +8°C° 0 mm 9 mps 752 mmHg 79%
10:00 +10°C° 0 mm 9 mps 753 mmHg 77%
11:00 +10°C° 0.1 mm 9 mps 753 mmHg 76%
12:00 +11°C° 0.1 mm 8 mps 754 mmHg 74%
13:00 +11°C° 0.1 mm 8 mps 754 mmHg 72%
14:00 +11°C° 0 mm 8 mps 755 mmHg 73%
15:00 +11°C° 0 mm 7 mps 755 mmHg 74%
16:00 +10°C° 0 mm 7 mps 755 mmHg 75%
17:00 +11°C° 0 mm 7 mps 755 mmHg 74%
18:00 +11°C° 0 mm 8 mps 755 mmHg 73%
19:00 +11°C° 0 mm 8 mps 755 mmHg 72%
20:00 +11°C° 0.8 mm 8 mps 754 mmHg 78%
21:00 +11°C° 0.8 mm 9 mps 754 mmHg 83%
22:00 +10°C° 0.8 mm 9 mps 754 mmHg 89%
23:00 +11°C° 0.4 mm 9 mps 754 mmHg 88%

30 October, Friday

Time Temperature Precipitation Wind Pressure Humidity
00:00 +11°C° 0.4 mm 9 mps 754 mmHg 87%
01:00 +12°C° 0.4 mm 9 mps 754 mmHg 86%
02:00 +12°C° 0 mm 9 mps 754 mmHg 85%
03:00 +12°C° 0 mm 9 mps 755 mmHg 85%
04:00 +12°C° 0 mm 8 mps 755 mmHg 84%
05:00 +12°C° 0 mm 8 mps 755 mmHg 84%
06:00 +12°C° 0 mm 8 mps 755 mmHg 83%
07:00 +12°C° 0 mm 8 mps 755 mmHg 82%
08:00 +12°C° 0 mm 8 mps 756 mmHg 81%
09:00 +13°C° 0 mm 8 mps 756 mmHg 79%
10:00 +13°C° 0 mm 8 mps 756 mmHg 78%
11:00 +13°C° 0 mm 8 mps 756 mmHg 76%
12:00 +15°C° 0 mm 8 mps 756 mmHg 73%
13:00 +15°C° 0 mm 8 mps 757 mmHg 71%
14:00 +15°C° 0 mm 8 mps 757 mmHg 72%
15:00 +15°C° 0 mm 7 mps 757 mmHg 73%
16:00 +14°C° 0 mm 7 mps 757 mmHg 74%
17:00 +14°C° 0 mm 6 mps 757 mmHg 74%
18:00 +14°C° 0 mm 6 mps 758 mmHg 75%
19:00 +14°C° 0 mm 6 mps 758 mmHg 75%
20:00 +13°C° 0 mm 5 mps 758 mmHg 77%
21:00 +13°C° 0 mm 5 mps 758 mmHg 80%
22:00 +12°C° 0 mm 5 mps 758 mmHg 82%
23:00 +12°C° 0 mm 5 mps 758 mmHg 84%

31 October, Saturday

Time Temperature Precipitation Wind Pressure Humidity
00:00 +12°C° 0 mm 4 mps 758 mmHg 85%
01:00 +11°C° 0 mm 4 mps 757 mmHg 86%
02:00 +11°C° 0 mm 4 mps 757 mmHg 85%
03:00 +10°C° 0 mm 5 mps 757 mmHg 85%
04:00 +10°C° 0 mm 5 mps 756 mmHg 84%
05:00 +10°C° 0 mm 5 mps 756 mmHg 82%
06:00 +10°C° 0 mm 5 mps 756 mmHg 80%
07:00 +10°C° 0 mm 5 mps 756 mmHg 78%
Show more

We Need Your Consent

Meteoprog and our Service Providers may store and access personal data such as cookies, device identifiers or other similar technologies on your device and process such data to personalise content and ads, as well as provide social media features and to analyse the traffic.

  • Store and/or access information on your device

    Cookies, device identifiers or other information can be stored or accessed on your device for the purposes indicated above.

  • Personalised ads and content, ad and content measurement, audience insights, and products development

    Ads and content can be personalised based on a profile. More data can be added to better personalise ads and content. Ad and content performance can be measured. Insights about the audience who saw the ads and content can be derived. Such data can be used to develop or improve user’s experience, systems and software.

By clicking ‘I Agree’ you will allow the use of indicated cookies, device identifiers, web beacons or other similar technologies. Your settings can be changed in the browser on your device.

For certain purposes, legitimate interests may be relied on, rather than consent. You can read more about this in our Privacy and Cookie Policy.